Precipitable_Water
1.20 1.24 1.17 0.96 0.55 0.51 0.36 0.33 0.41 0.31 0.29 0.36 0.41 0.45 0.48 0.52 0.51 0.51 1.22 1.40 1.33 1.41 1.47 1.50 1.44 1.40 1.42 1.42 1.39 1.42 1.47 1.44 1.46 1.39 1.33 1.31 1.27 1.24 1.19 1.22 1.07 0.97 0.86 0.83 0.81 0.79 0.77 0.79 0.80
1.21 1.11 1.07 0.83 0.51 0.43 0.37 0.40 0.35 0.41 0.42 0.47 0.44 0.57 0.58 0.55 0.84 1.01 1.20 1.43 1.43 1.43 1.48 1.48 1.43 1.42 1.43 1.43 1.41 1.42 1.42 1.40 1.40 1.36 1.34 1.31 1.30 1.25 1.19 1.34 1.15 1.04 0.84 0.81 0.82 0.79 0.81 0.82 0.85
1.22 1.10 0.78 0.67 0.56 0.44 0.43 0.42 0.41 0.50 0.49 0.51 0.43 0.51 0.56 0.61 0.89 1.03 1.40 1.49 1.51 1.40 1.46 1.46 1.39 1.44 1.47 1.47 1.41 1.38 1.42 1.40 1.36 1.32 1.29 1.29 1.25 1.22 1.18 1.37 1.22 1.06 0.84 0.83 0.80 0.84 0.91 0.96 0.97
1.03 0.93 0.83 0.58 0.48 0.56 0.56 0.49 0.52 0.53 0.56 0.55 0.51 0.51 0.73 0.91 0.94 1.18 1.47 1.52 1.48 1.41 1.41 1.44 1.43 1.46 1.50 1.50 1.46 1.40 1.37 1.35 1.33 1.25 1.20 1.20 1.19 1.15 1.20 1.35 1.23 1.06 0.83 0.79 0.80 0.89 0.96 0.98 1.01
0.97 0.82 0.57 0.47 0.49 0.56 0.65 0.59 0.60 0.54 0.60 0.57 0.57 0.53 0.65 0.92 1.14 1.30 1.45 1.52 1.40 1.40 1.41 1.44 1.49 1.50 1.51 1.52 1.51 1.46 1.38 1.28 1.23 1.18 1.16 1.14 1.05 1.04 1.08 1.32 1.19 1.07 0.87 0.83 0.86 0.93 1.00 1.03 1.07
0.64 0.73 0.46 0.38 0.44 0.55 0.61 0.70 0.65 0.61 0.65 0.63 0.52 0.67 0.76 1.13 1.15 1.26 1.45 1.52 1.57 1.36 1.40 1.46 1.53 1.55 1.53 1.54 1.54 1.50 1.39 1.29 1.22 1.19 1.13 1.08 1.05 1.00 1.06 1.24 1.15 1.09 0.98 0.87 0.90 0.97 1.03 1.04 1.08
0.55 0.54 0.40 0.41 0.40 0.50 0.62 0.75 0.66 0.65 0.66 0.65 0.66 0.61 0.87 1.07 1.30 1.34 1.39 1.53 1.56 1.54 1.38 1.46 1.54 1.55 1.56 1.58 1.56 1.50 1.40 1.31 1.26 1.20 1.11 1.03 1.11 0.99 1.06 1.19 1.13 1.09 1.03 0.88 0.93 0.95 1.01 1.06 1.08
0.63 0.56 0.43 0.43 0.38 0.39 0.70 0.75 0.77 0.73 0.66 0.80 0.72 0.57 0.67 0.97 1.27 1.36 1.40 1.45 1.53 1.53 1.42 1.43 1.53 1.56 1.59 1.61 1.58 1.50 1.43 1.33 1.24 1.18 1.13 1.08 1.15 1.05 1.03 1.16 1.16 1.11 1.05 0.95 0.93 0.98 1.00 1.05 1.06
0.80 0.47 0.33 0.38 0.40 0.47 0.69 0.74 0.76 0.85 0.77 0.80 0.78 0.77 0.96 1.12 1.31 1.28 1.30 1.37 1.43 1.47 1.45 1.45 1.50 1.59 1.61 1.60 1.60 1.53 1.44 1.33 1.24 1.14 1.14 1.27 1.23 1.11 1.07 1.12 1.19 1.16 1.10 1.05 0.93 0.98 1.01 1.04 1.09
0.59 0.41 0.36 0.46 0.52 0.49 0.62 0.71 0.77 0.75 0.76 0.75 0.77 1.03 1.12 1.23 1.24 1.15 1.17 1.17 1.22 1.34 1.40 1.48 1.47 1.56 1.60 1.59 1.60 1.54 1.45 1.36 1.27 1.14 1.12 1.17 1.21 1.18 1.10 1.12 1.20 1.18 1.12 1.09 1.03 0.94 1.01 1.03 1.06
0.56 0.38 0.49 0.50 0.49 0.51 0.62 0.71 0.85 0.81 0.73 0.78 0.77 0.87 1.16 1.16 1.19 1.18 1.22 1.27 1.25 1.38 1.52 1.52 1.48 1.55 1.58 1.55 1.58 1.53 1.46 1.37 1.30 1.20 1.11 1.11 1.15 1.17 1.17 1.17 1.17 1.21 1.17 1.10 1.06 1.01 0.95 0.99 1.01
0.45 0.55 0.52 0.54 0.57 0.53 0.55 0.66 0.71 0.81 0.79 0.90 0.92 0.93 1.09 1.16 1.14 1.16 1.23 1.39 1.46 1.44 1.53 1.64 1.53 1.51 1.57 1.58 1.56 1.52 1.44 1.37 1.28 1.19 1.13 1.07 1.08 1.07 1.08 1.09 1.12 1.12 1.13 1.07 1.06 1.01 0.90 0.93 0.99
0.45 0.54 0.57 0.58 0.60 0.58 0.61 0.57 0.65 0.73 0.88 0.96 0.94 0.90 1.08 1.14 1.20 1.30 1.34 1.48 1.59 1.52 1.57 1.60 1.66 1.58 1.54 1.56 1.59 1.53 1.44 1.39 1.33 1.25 1.21 1.14 1.08 1.05 1.07 1.07 1.07 1.08 1.11 1.06 1.03 1.00 0.93 0.90 0.93
0.48 0.50 0.55 0.58 0.56 0.57 0.53 0.57 0.61 0.68 0.87 0.96 0.92 0.88 0.90 1.10 1.19 1.27 1.29 1.34 1.47 1.55 1.58 1.64 1.62 1.68 1.59 1.51 1.54 1.51 1.48 1.45 1.37 1.30 1.29 1.26 1.12 1.07 1.08 1.09 1.08 1.05 1.07 1.04 1.02 1.00 0.95 0.89 0.95
0.54 0.38 0.48 0.54 0.55 0.52 0.55 0.46 0.54 0.67 0.79 0.85 0.88 0.85 0.85 0.98 1.18 1.15 1.20 1.19 1.34 1.49 1.59 1.54 1.58 1.60 1.56 1.56 1.54 1.50 1.47 1.43 1.36 1.30 1.31 1.31 1.27 1.16 1.14 1.16 1.12 1.05 1.07 1.02 1.02 0.99 0.99 0.91 0.97
0.45 0.45 0.34 0.52 0.52 0.54 0.52 0.28 0.50 0.66 0.66 0.68 0.80 0.85 0.81 0.91 1.03 1.18 1.19 1.19 1.34 1.39 1.48 1.59 1.56 1.53 1.56 1.58 1.59 1.56 1.54 1.46 1.35 1.34 1.33 1.34 1.32 1.26 1.19 1.12 1.09 1.07 1.05 1.03 1.00 0.95 0.93 0.93 0.92
0.40 0.25 0.33 0.44 0.55 0.48 0.45 0.34 0.46 0.60 0.64 0.62 0.70 0.77 0.81 0.83 0.99 1.15 1.21 1.20 1.30 1.38 1.44 1.53 1.53 1.48 1.51 1.53 1.50 1.45 1.41 1.33 1.32 1.35 1.34 1.34 1.31 1.26 1.25 1.19 1.13 1.09 1.00 0.98 0.96 0.95 0.96 0.95 0.98
0.28 0.24 0.31 0.32 0.45 0.47 0.42 0.38 0.43 0.52 0.61 0.63 0.64 0.72 0.81 0.80 0.86 1.09 1.18 1.27 1.28 1.28 1.36 1.48 1.52 1.50 1.51 1.53 1.54 1.50 1.37 1.31 1.32 1.31 1.30 1.30 1.29 1.24 1.16 1.09 1.04 1.05 0.97 0.95 0.97 0.97 1.00 0.98 0.98
0.42 0.30 0.26 0.36 0.43 0.43 0.39 0.41 0.44 0.45 0.55 0.61 0.63 0.66 0.69 0.81 0.82 0.91 1.13 1.25 1.25 1.19 1.20 1.32 1.41 1.47 1.45 1.43 1.39 1.36 1.27 1.22 1.22 1.25 1.27 1.21 1.20 1.19 1.13 1.07 1.06 1.07 1.01 0.99 0.99 0.98 0.97 0.96 1.04
0.47 0.32 0.28 0.34 0.43 0.45 0.40 0.36 0.43 0.45 0.47 0.56 0.61 0.63 0.67 0.69 0.75 0.76 0.81 0.98 1.06 1.11 1.10 1.16 1.24 1.38 1.40 1.41 1.40 1.39 1.37 1.37 1.29 1.25 1.22 1.23 1.23 1.21 1.16 1.11 1.10 1.12 1.10 1.07 1.04 1.06 1.01 1.01 1.04
0.44 0.38 0.32 0.24 0.39 0.44 0.39 0.32 0.34 0.40 0.45 0.48 0.55 0.61 0.64 0.63 0.65 0.69 0.71 0.73 0.84 1.01 1.05 1.11 1.15 1.24 1.36 1.42 1.41 1.38 1.41 1.40 1.31 1.27 1.26 1.29 1.30 1.29 1.25 1.25 1.25 1.25 1.21 1.09 1.14 1.14 1.08 0.96 1.02
0.36 0.51 0.42 0.31 0.26 0.22 0.37 0.20 0.28 0.34 0.36 0.39 0.38 0.43 0.47 0.57 0.62 0.65 0.68 0.68 0.71 0.86 1.05 1.11 1.18 1.22 1.32 1.39 1.35 1.29 1.24 1.20 1.31 1.36 1.40 1.42 1.48 1.46 1.44 1.41 1.38 1.35 1.29 1.21 1.17 1.19 1.12 1.07 0.99
0.41 0.52 0.47 0.42 0.32 0.27 0.28 0.23 0.22 0.30 0.26 0.29 0.36 0.39 0.41 0.44 0.52 0.57 0.64 0.71 0.71 0.76 0.88 1.01 1.10 1.14 1.26 1.34 1.36 1.31 1.26 1.27 1.34 1.38 1.40 1.42 1.44 1.50 1.53 1.48 1.40 1.30 1.25 1.21 1.18 1.15 1.13 1.13 1.05
0.49 0.47 0.48 0.45 0.38 0.22 0.23 0.23 0.14 0.17 0.21 0.26 0.33 0.36 0.43 0.45 0.47 0.50 0.59 0.71 0.75 0.76 0.78 0.88 0.96 1.03 1.07 1.13 1.18 1.19 1.21 1.23 1.22 1.24 1.27 1.35 1.39 1.43 1.42 1.41 1.37 1.31 1.24 1.19 1.17 1.14 1.10 1.04 1.02
0.45 0.37 0.28 0.26 0.25 0.21 0.28 0.22 0.17 0.24 0.24 0.22 0.23 0.27 0.34 0.45 0.48 0.49 0.51 0.56 0.66 0.73 0.76 0.83 0.89 0.91 0.91 0.93 0.99 1.02 1.02 0.99 0.99 1.10 1.17 1.20 1.24 1.26 1.28 1.27 1.20 1.16 1.15 1.13 1.11 1.06 1.02 1.02 1.00
0.39 0.36 0.30 0.20 0.20 0.23 0.33 0.19 0.23 0.29 0.32 0.31 0.30 0.32 0.34 0.37 0.43 0.50 0.53 0.54 0.58 0.64 0.71 0.78 0.81 0.81 0.82 0.82 0.82 0.83 0.80 0.78 0.77 0.77 0.79 0.81 0.86 0.90 0.95 0.98 1.04 1.06 1.07 1.06 1.05 0.99 0.97 1.07 1.05
0.37 0.32 0.44 0.32 0.30 0.24 0.29 0.31 0.35 0.33 0.32 0.31 0.30 0.31 0.31 0.33 0.36 0.41 0.53 0.56 0.58 0.60 0.64 0.68 0.72 0.76 0.79 0.80 0.80 0.78 0.77 0.74 0.71 0.70 0.69 0.67 0.69 0.74 0.78 0.85 0.93 1.03 1.07 1.07 1.08 1.04 0.95 1.02 0.99
0.38 0.43 0.31 0.33 0.21 0.18 0.22 0.24 0.24 0.28 0.28 0.31 0.31 0.33 0.37 0.40 0.41 0.44 0.48 0.54 0.59 0.61 0.63 0.67 0.70 0.72 0.74 0.75 0.75 0.73 0.71 0.70 0.69 0.67 0.65 0.68 0.70 0.72 0.74 0.77 0.84 0.96 1.01 1.11 1.04 0.96 0.88 0.89 0.82
0.33 0.34 0.36 0.37 0.32 0.20 0.17 0.21 0.33 0.30 0.32 0.31 0.35 0.39 0.43 0.45 0.48 0.51 0.53 0.57 0.59 0.62 0.63 0.64 0.65 0.66 0.68 0.71 0.72 0.68 0.66 0.68 0.69 0.68 0.68 0.68 0.69 0.71 0.71 0.74 0.76 0.83 0.90 0.94 0.94 0.90 0.84 0.78 0.80
0.35 0.35 0.35 0.27 0.27 0.30 0.26 0.23 0.37 0.36 0.36 0.37 0.39 0.45 0.50 0.52 0.55 0.57 0.59 0.59 0.59 0.59 0.60 0.62 0.62 0.62 0.64 0.67 0.68 0.67 0.66 0.66 0.65 0.66 0.69 0.71 0.70 0.71 0.70 0.70 0.70 0.72 0.75 0.79 0.80 0.82 0.84 0.78 0.72
Wind_Speed
30 29 27 27 27 26 28 27 24 22 23 22 22 23 22 19 19 19 17 20 20 21 19 18 16 15 14 13 12 11 10 8 7 6 5 4 4 3 3 3 3 4 4 4 3 3 4 4 4
32 30 31 27 29 29 30 28 25 25 22 21 21 22 20 19 18 17 19 20 22 21 20 19 18 16 15 13 12 11 10 9 7 6 5 4 4 3 2 3 3 3 4 4 4 4 5 4 4
32 31 30 33 32 34 31 29 27 25 23 22 22 21 22 20 18 21 21 23 22 22 21 20 19 17 16 14 12 11 10 9 7 6 5 4 4 3 3 3 3 3 3 3 4 4 4 4 3
32 30 29 33 42 42 34 29 28 23 22 22 21 22 22 21 20 21 23 24 23 22 22 21 20 18 17 15 12 11 10 9 7 6 5 4 4 3 3 3 3 3 3 3 4 4 4 3 4
32 30 31 34 37 39 37 34 30 26 24 23 22 24 22 22 22 23 24 24 25 24 23 22 21 20 18 15 13 11 9 8 7 6 5 4 4 3 4 4 3 2 3 3 3 3 3 3 3
31 32 31 36 43 37 33 34 31 29 26 23 21 23 23 24 24 25 24 25 25 25 24 24 23 21 19 16 14 12 9 8 7 6 5 4 4 4 4 4 3 2 2 2 2 2 1 2 2
33 32 32 34 38 42 33 34 34 31 29 25 23 24 25 26 27 27 26 25 25 26 26 25 24 22 20 18 15 13 10 8 7 6 5 4 4 4 4 4 3 2 1 1 1 0 0 1 2
33 31 32 31 36 42 35 32 36 34 31 28 24 23 26 27 28 28 27 27 26 27 27 27 26 24 22 19 16 14 12 10 8 7 5 5 4 4 4 4 3 2 1 1 1 1 1 2 2
32 31 34 34 32 31 34 35 44 36 34 30 27 26 26 30 30 29 28 28 27 27 28 28 27 25 23 21 18 15 13 11 9 8 7 5 5 4 4 5 4 3 3 3 3 3 3 3 3
34 34 30 30 29 30 35 36 40 41 38 33 27 23 27 31 31 30 30 29 29 29 29 29 28 27 25 22 20 17 15 13 11 10 9 7 6 5 5 5 5 5 4 5 5 5 5 6 6
34 34 29 26 27 32 36 34 31 37 40 36 31 25 27 30 32 31 30 30 30 30 30 29 29 28 27 24 22 19 17 15 13 12 11 10 8 7 6 6 7 6 6 6 7 7 8 8 8
32 36 30 26 24 27 31 34 30 36 43 33 32 29 29 31 31 31 31 31 30 29 30 30 30 29 28 26 24 22 19 17 16 15 14 12 11 10 9 9 9 9 9 9 9 10 10 11 11
38 29 33 30 27 27 28 30 36 36 36 34 31 28 31 32 31 31 31 31 30 30 29 30 30 30 29 28 26 24 22 20 18 17 16 15 14 13 13 12 12 12 12 12 12 12 13 13 14
31 36 28 31 30 28 29 30 30 32 34 37 33 32 29 33 32 31 30 30 31 29 29 28 29 30 29 28 27 25 24 23 21 20 19 18 17 16 15 15 15 15 15 15 15 15 15 16 16
27 34 33 30 30 30 29 33 33 31 34 33 35 34 27 33 33 33 32 30 30 30 29 28 27 28 29 28 27 26 25 24 23 22 21 20 19 18 18 17 17 17 17 17 17 17 17 18 18
36 25 35 31 31 29 29 35 34 36 32 36 33 35 29 28 33 33 32 30 31 31 31 29 29 28 28 28 26 26 25 24 23 22 22 22 21 20 19 19 18 18 18 18 18 18 19 19 20
35 30 30 29 30 27 29 28 32 36 35 34 32 32 31 28 29 33 32 32 32 31 32 30 30 30 29 28 27 26 25 24 24 23 22 22 22 21 20 20 20 19 19 19 19 19 20 21 22
36 33 28 29 29 31 27 26 26 35 36 35 33 31 32 29 30 31 32 32 31 31 33 32 31 31 31 30 29 27 26 25 24 24 23 23 23 23 22 22 21 20 20 20 21 21 22 23 24
31 31 28 26 26 28 27 27 27 28 32 34 34 33 31 31 30 29 31 32 33 32 33 35 34 32 31 31 30 29 28 27 26 25 25 24 24 24 24 23 23 22 23 23 23 23 24 24 24
23 33 27 24 25 25 26 27 30 29 31 33 34 35 35 32 31 31 31 33 34 34 34 34 36 36 34 32 32 31 30 29 28 27 26 26 26 26 26 25 25 25 25 25 25 26 26 26 26
17 31 28 27 24 21 21 22 27 30 31 31 34 35 36 35 35 34 33 33 35 35 35 35 35 36 36 35 34 32 32 31 30 29 29 28 28 29 29 28 28 28 28 28 28 28 28 28 28
14 23 26 23 27 24 22 19 24 29 31 32 36 37 35 35 35 35 34 34 32 36 35 35 35 35 36 36 35 35 33 32 32 32 32 31 31 31 31 31 31 31 31 31 30 31 31 31 31
17 14 22 21 21 21 21 19 21 21 28 34 33 32 35 35 35 35 35 34 34 33 35 34 34 34 34 35 35 35 34 34 34 34 33 33 33 33 33 33 32 32 33 33 34 34 34 34 34
16 14 19 19 19 19 23 20 19 22 22 25 29 31 31 32 34 33 34 34 34 34 34 34 34 33 33 34 34 35 35 34 34 34 34 34 34 34 34 34 34 34 34 35 36 35 36 36 36
22 18 16 16 19 19 22 21 23 16 19 21 23 27 31 30 31 33 34 35 34 33 34 34 33 33 32 33 34 34 34 35 35 35 34 34 34 34 35 35 35 35 35 35 35 34 34 34 34
24 20 14 16 18 18 15 21 19 18 19 21 20 21 22 25 30 32 34 34 34 33 33 33 34 33 32 32 33 33 34 34 35 35 36 37 37 37 36 37 37 36 36 35 34 33 32 32 32
24 23 16 12 13 13 18 17 16 18 16 16 19 19 21 22 24 28 31 33 33 33 33 32 33 33 34 33 33 34 35 35 35 36 37 36 37 37 36 36 36 36 35 34 33 32 31 31 30
23 23 17 15 14 14 13 15 16 15 16 15 18 19 18 18 21 23 26 30 32 33 33 33 33 33 34 34 34 34 35 35 35 35 35 35 35 34 34 33 33 33 32 32 30 30 29 29 29
24 23 19 15 14 13 11 13 13 16 18 17 17 18 18 17 19 21 23 25 29 32 33 33 33 33 33 32 32 32 31 31 31 31 31 30 30 30 30 29 29 29 29 29 29 30 29 29 28
25 24 21 16 14 12 12 10 10 10 11 13 15 17 17 18 20 21 24 25 26 28 31 31 31 30 30 29 29 29 29 29 29 30 30 29 30 30 29 29 29 29 29 29 29 29 28 27 27
Wind_Direction
228 226 223 219 218 219 219 219 217 216 213 215 217 216 215 215 212 217 211 193 189 186 185 183 180 178 175 174 175 175 174 173 172 172 167 158 146 135 121 114 92 77 72 76 77 81 85 84 76
226 225 222 220 218 217 220 215 216 211 214 220 213 211 214 216 213 209 193 195 189 188 186 185 182 178 176 174 174 174 173 172 170 168 165 160 155 148 131 127 100 81 73 80 85 86 89 84 72
222 222 221 220 222 218 217 213 213 216 220 215 213 215 212 213 214 201 200 192 190 190 188 186 182 180 177 174 172 172 171 170 168 167 168 165 159 152 145 138 112 86 80 85 92 95 90 77 61
219 220 224 222 219 221 215 209 208 214 216 208 213 216 214 213 205 200 193 192 191 191 191 189 186 183 180 177 174 170 170 169 169 171 167 165 163 160 157 151 131 98 88 93 99 100 90 73 55
216 219 222 224 222 218 217 214 212 216 216 216 221 216 213 212 206 197 195 195 195 194 192 191 188 186 183 181 178 173 169 171 173 169 167 168 170 171 168 161 152 120 101 103 104 102 89 70 50
216 218 222 224 221 218 219 213 212 214 216 222 218 214 215 210 204 200 197 196 198 197 196 193 191 189 188 186 183 179 176 170 168 171 169 171 168 169 170 168 161 148 125 119 116 113 90 51 36
216 219 225 225 221 220 216 212 211 213 215 217 220 216 216 209 206 202 200 200 200 199 198 196 194 194 193 192 190 189 186 182 179 177 180 179 172 170 174 174 175 169 159 150 145 149 111 5 4
217 220 222 224 219 220 215 215 211 214 213 217 215 217 215 211 205 202 202 202 202 201 200 199 198 198 197 197 197 197 197 196 194 193 194 188 183 184 183 187 192 195 207 237 249 266 281 299 324
216 221 223 222 218 215 213 218 216 213 216 217 221 224 222 205 202 202 202 204 202 202 202 202 201 201 201 202 202 204 205 205 205 204 199 192 195 203 205 208 214 226 245 262 270 274 282 284 293
216 220 223 226 223 217 213 214 218 216 218 219 222 222 212 203 204 203 204 205 205 204 205 205 205 205 206 206 207 209 211 212 212 211 209 212 216 221 219 222 230 243 257 269 275 276 278 278 281
217 222 221 223 219 217 215 216 212 210 220 214 219 215 212 207 206 207 207 206 207 207 207 207 208 209 209 210 211 213 215 217 218 219 221 224 226 230 232 235 242 252 263 271 275 278 277 278 279
220 219 218 221 218 213 213 213 210 210 214 213 220 220 215 214 208 208 208 208 207 208 208 210 211 211 212 213 215 217 219 221 224 225 228 231 235 240 245 248 252 257 264 270 276 280 279 278 278
217 216 218 219 219 218 216 213 213 213 210 215 218 218 215 213 212 211 209 209 208 208 209 211 212 213 214 216 218 220 223 225 228 230 233 237 240 245 249 253 257 261 266 270 274 278 280 279 279
217 215 219 217 218 218 216 214 213 213 207 210 220 219 219 216 212 211 209 209 210 211 210 211 213 214 215 217 220 223 226 229 232 234 237 240 242 246 250 255 259 262 267 270 273 277 279 279 279
214 211 216 217 215 219 215 220 212 207 207 205 215 216 218 216 214 213 212 212 211 213 211 212 212 214 215 218 221 224 227 231 234 236 239 242 244 247 250 256 260 261 267 271 273 277 279 279 279
209 210 212 216 212 216 211 221 214 215 210 209 211 214 216 218 216 215 215 214 214 215 215 215 215 215 216 218 222 225 229 233 234 237 240 242 245 248 251 255 258 262 267 271 275 277 279 280 280
206 208 209 210 209 211 212 218 215 215 214 214 213 213 216 220 217 217 217 217 217 218 217 218 217 218 220 222 225 228 230 233 234 238 241 243 245 248 251 254 258 262 266 271 275 278 279 281 281
203 203 206 208 210 211 214 218 218 216 216 216 217 216 218 218 221 219 217 217 218 220 220 221 221 222 224 226 228 230 232 235 237 240 243 245 247 248 251 254 257 261 267 271 275 278 280 282 283
204 202 201 208 210 210 215 215 220 217 219 218 218 219 220 219 223 221 221 221 222 224 224 224 224 225 226 227 228 231 234 236 239 242 244 246 248 249 250 255 258 261 267 271 275 278 279 281 283
207 201 203 206 208 210 215 221 221 221 220 221 221 220 220 222 224 225 225 226 225 226 227 227 228 228 229 229 231 233 236 239 242 244 246 248 249 250 252 256 260 263 267 271 274 275 278 280 281
208 199 201 204 203 212 212 226 222 224 224 226 226 225 225 226 227 229 230 230 229 228 229 229 229 229 229 231 233 236 238 241 243 246 248 250 251 252 255 257 260 264 267 271 273 274 275 279 281
205 202 196 193 198 210 209 225 226 222 225 226 229 229 230 229 231 232 232 231 231 230 230 230 230 231 232 233 234 236 240 242 245 247 249 251 253 254 256 259 261 265 268 270 273 275 277 278 279
199 200 195 199 198 203 211 218 224 218 226 227 227 230 231 230 231 232 231 229 230 229 229 230 231 232 233 234 236 238 241 245 247 249 251 253 255 256 258 260 262 265 268 271 273 275 276 277 278
193 196 187 197 203 213 212 212 224 219 222 227 227 230 230 230 229 229 230 230 230 230 230 230 231 232 234 236 238 241 243 246 248 250 252 254 256 258 260 262 264 266 269 271 274 275 276 277 277
189 186 185 194 205 213 206 215 222 222 223 224 226 229 230 229 228 227 228 229 230 231 231 230 231 232 235 238 240 243 246 248 250 251 253 255 257 259 261 263 265 267 270 272 274 275 276 276 277
195 192 196 195 201 208 204 218 221 222 226 229 227 226 225 228 229 227 227 227 228 230 230 230 231 233 236 239 242 245 248 250 252 255 256 258 260 262 264 264 266 267 269 271 272 274 276 277 278
195 200 194 196 206 204 214 230 235 219 224 227 228 230 236 235 229 226 226 227 227 228 229 230 231 234 238 241 245 248 250 253 254 257 258 259 260 262 264 265 266 267 268 269 271 273 276 277 279
195 188 192 200 194 205 220 226 220 216 220 227 228 233 233 229 224 224 226 227 228 229 230 232 234 236 240 243 247 249 253 255 256 256 257 258 260 261 263 264 265 265 266 267 269 270 276 277 279
190 188 192 199 196 201 205 221 217 226 228 229 230 228 226 224 225 226 227 228 229 229 231 233 235 237 241 243 246 248 250 252 253 254 256 257 258 259 261 262 263 263 264 265 267 271 274 275 276
193 194 191 193 204 207 203 214 208 218 223 222 226 225 227 230 230 232 232 232 232 232 231 232 233 236 238 241 243 246 249 252 253 254 255 257 258 259 260 261 263 264 265 266 268 270 272 273 276